Weather History for KCOU - March, 2012

Change the Weather History Date:

Sunday, March 4, 2012

  Actual Average Record
Temperature  
Mean Temperature 41 °F 40 °F  
Max Temperature 54 °F 50 °F 80 °F (1938)
Min Temperature 28 °F 30 °F -5 °F (1978)
Degree Days  
Heating Degree Days 24 25  
Month to date heating degree days 88 102  
Since 1 July heating degree days 3431 4048  
Cooling Degree Days 0 0  
Month to date cooling degree days 0 0  
Year to date cooling degree days 0 0  
Moisture  
Dew Point 24 °F    
Average Humidity 48    
Maximum Humidity 64    
Minimum Humidity 32    
Precipitation  
Precipitation T in 0.09 in 1.78 in (1897)
Month to date precipitation 0.14 0.34  
Year to date precipitation 3.55 4.51  
Snow  
Snow 0.00 in 0.00 in 6.40 in (1965)
Month to date snowfall T 0.3  
Since 1 July snowfall 6.6 16.4  
Snow Depth 0.00 in    
Sea Level Pressure  
Sea Level Pressure 29.94 in    
Wind  
Wind Speed 7 mph (West)    
Max Wind Speed 24 mph    
Max Gust Speed 31 mph    
Visibility 10 miles    
Events      
T = Trace of Precipitation, MM = Missing Value Source: NWS Daily Summary

Daily Weather History Graph

Daily Weather History Graph

Search for Another Location

Airport or City:

Trip Planner

Search our weather history database for the weather conditions in past years. The results will help you decide how hot, cold, wet, or windy it might be!

Date:

Astronomy

Mar. 04, 2012 Rise Set
Actual Time 6:36 AM CST 6:05 PM CST
Civil Twilight 6:09 AM CST 6:32 PM CST
Nautical Twilight 5:38 AM CST 7:02 PM CST
Astronomical Twilight 5:07 AM CST 7:33 PM CST
Moon 2:20 PM CST (3/4) 3:54 AM CST (3/4)
Length of Visible Light 12h 22m
Length of Day
11h 29m
Waxing Gibbous, 84% of the Moon is Illuminated
Mar 4
Waxing Gibbous
Mar 8
Full
Mar 14
Last Quarter
Mar 22
New
Mar 30
First Quarter

Hourly Weather History & Observations

Time (CST) Temp. Windchill Dew Point Humidity Pressure Visibility Wind Dir Wind Speed Gust Speed Precip Events Conditions
12:54 AM 30.9 °F 25.2 °F 16.0 °F 54% 29.94 in 10.0 mi WSW 5.8 mph - N/A   Clear
1:54 AM 30.9 °F 25.2 °F 17.1 °F 57% 29.94 in 10.0 mi West 5.8 mph - N/A   Overcast
2:54 AM 32.0 °F 27.5 °F 19.0 °F 59% 29.93 in 10.0 mi West 4.6 mph - N/A   Overcast
3:54 AM 33.1 °F - 18.0 °F 54% 29.93 in 10.0 mi Calm Calm - N/A   Overcast
4:54 AM 32.0 °F 28.7 °F 19.0 °F 59% 29.94 in 10.0 mi West 3.5 mph - N/A   Overcast
5:54 AM 30.9 °F 27.5 °F 19.0 °F 61% 29.95 in 10.0 mi West 3.5 mph - N/A   Partly Cloudy
6:54 AM 30.0 °F - 19.0 °F 64% 29.95 in 10.0 mi Calm Calm - N/A   Overcast
7:54 AM 33.1 °F 28.7 °F 21.9 °F 64% 29.96 in 10.0 mi SW 4.6 mph - N/A   Scattered Clouds
8:54 AM 36.0 °F 33.3 °F 19.9 °F 52% 29.96 in 10.0 mi SSW 3.5 mph - N/A   Mostly Cloudy
9:54 AM 39.0 °F 36.8 °F 21.0 °F 49% 29.96 in 10.0 mi South 3.5 mph - N/A   Overcast
10:54 AM 41.0 °F 36.4 °F 21.9 °F 47% 29.94 in 10.0 mi South 6.9 mph - N/A   Overcast
11:54 AM 43.0 °F 41.3 °F 23.0 °F 45% 29.91 in 10.0 mi South 3.5 mph - N/A   Overcast
12:54 PM 48.0 °F - 24.1 °F 39% 29.89 in 10.0 mi Variable 4.6 mph - N/A   Overcast
1:13 PM 48.2 °F - 24.8 °F 40% 29.87 in 10.0 mi Calm Calm - N/A   Overcast
1:54 PM 52.0 °F - 25.0 °F 35% 29.85 in 10.0 mi WSW 4.6 mph - N/A   Mostly Cloudy
2:54 PM 53.1 °F - 25.0 °F 34% 29.83 in 10.0 mi SW 3.5 mph - N/A   Overcast
3:54 PM 53.1 °F - 28.0 °F 38% 29.83 in 10.0 mi NNE 4.6 mph - N/A   Overcast
4:54 PM 52.0 °F - 28.9 °F 41% 29.85 in 10.0 mi North 4.6 mph - N/A   Mostly Cloudy
5:54 PM 50.0 °F - 28.9 °F 44% 29.89 in 10.0 mi North 15.0 mph 20.7 mph N/A   Overcast
6:54 PM 44.1 °F 38.6 °F 30.0 °F 58% 29.96 in 10.0 mi North 10.4 mph - 0.00 in   Overcast
7:54 PM 44.1 °F 36.8 °F 30.0 °F 58% 29.98 in 10.0 mi NW 16.1 mph 23.0 mph N/A   Mostly Cloudy
8:54 PM 43.0 °F 34.8 °F 30.9 °F 62% 30.02 in 10.0 mi NW 18.4 mph 24.2 mph N/A   Clear
9:54 PM 41.0 °F 32.8 °F 28.9 °F 62% 30.06 in 10.0 mi NW 16.1 mph 25.3 mph N/A   Clear
10:54 PM 37.9 °F 27.6 °F 26.1 °F 62% 30.12 in 10.0 mi NNW 20.7 mph 28.8 mph N/A   Partly Cloudy
11:54 PM 36.0 °F 28.0 °F 26.1 °F 67% 30.16 in 10.0 mi NNW 11.5 mph 20.7 mph N/A   Overcast